San Carlos, CA

1:50 AM PDT on April 27, 2018 (GMT -0700)
San Carlos

Weather History for KSQL - August, 2013

Change the Weather History Date:

Thursday, August 15, 2013

  Actual Average Record
Temperature  
Mean Temperature 73 °F -  
Max Temperature 82 °F 81 °F 99 °F (1983)
Min Temperature 64 °F 55 °F 41 °F (1997)
Cooling Degree Days 8    
Growing Degree Days 23 (Base 50)    
Moisture  
Dew Point 61 °F    
Average Humidity 78    
Maximum Humidity 88    
Minimum Humidity 54    
Precipitation  
Precipitation 0.00 in - - ()
Sea Level Pressure  
Sea Level Pressure 29.96 in    
Wind  
Wind Speed 8 mph (West)    
Max Wind Speed 13 mph    
Max Gust Speed 20 mph    
Visibility 10 miles    
Events      
Averages and records for this station are not official NWS values.
T = Trace of Precipitation, MM = Missing Value Source: NWS Daily Summary

Daily Weather History Graph

Daily Weather History Graph

Search for Another Location

Airport or City:

Astronomy

Aug. 15, 2013 Rise Set
Actual Time 6:25 AM PDT 8:00 PM PDT
Civil Twilight 5:57 AM PDT 8:28 PM PDT
Nautical Twilight 5:23 AM PDT 9:02 PM PDT
Astronomical Twilight 4:48 AM PDT 9:37 PM PDT
Moon 3:21 PM PDT (8/15) 12:41 AM PDT (8/15)
Length of Visible Light 14h 31m
Length of Day
13h 35m
Waxing Gibbous, 65% of the Moon is Illuminated
Aug 15
Waxing Gibbous
Aug 20
Full
Aug 28
Last Quarter
Sep 5
New
Sep 12
First Quarter

Hourly Weather History & Observations

Time (PDT) Temp. Heat Index Dew Point Humidity Pressure Visibility Wind Dir Wind Speed Gust Speed Precip Events Conditions
12:15 AM 66.2 °F - 60.8 °F 83% 29.96 in 10.0 mi West 6.9 mph - N/A   Mostly Cloudy
12:35 AM 64.4 °F - 60.8 °F 88% 29.96 in 10.0 mi WSW 6.9 mph - N/A   Overcast
12:55 AM 64.4 °F - 60.8 °F 88% 29.96 in 10.0 mi West 9.2 mph - N/A   Overcast
1:15 AM 64.4 °F - 60.8 °F 88% 29.96 in 10.0 mi West 8.1 mph - N/A   Mostly Cloudy
1:35 AM 64.4 °F - 60.8 °F 88% 29.96 in 10.0 mi West 9.2 mph - N/A   Mostly Cloudy
1:55 AM 66.2 °F - 60.8 °F 83% 29.95 in 10.0 mi West 8.1 mph - N/A   Overcast
2:15 AM 66.2 °F - 59.0 °F 78% 29.96 in 10.0 mi WSW 6.9 mph - N/A   Overcast
2:35 AM 64.4 °F - 60.8 °F 88% 29.96 in 10.0 mi WSW 3.5 mph - N/A   Overcast
2:55 AM 64.4 °F - 59.0 °F 83% 29.95 in 10.0 mi SW 5.8 mph - N/A   Overcast
3:15 AM 64.4 °F - 59.0 °F 83% 29.95 in 10.0 mi West 5.8 mph - N/A   Overcast
3:35 AM 64.4 °F - 59.0 °F 83% 29.95 in 10.0 mi West 5.8 mph - N/A   Overcast
3:55 AM 64.4 °F - 59.0 °F 83% 29.95 in 10.0 mi WNW 8.1 mph - N/A   Overcast
4:15 AM 64.4 °F - 59.0 °F 83% 29.95 in 10.0 mi West 6.9 mph - N/A   Overcast
4:35 AM 64.4 °F - 59.0 °F 83% 29.95 in 10.0 mi West 4.6 mph - N/A   Overcast
4:55 AM 64.4 °F - 59.0 °F 83% 29.95 in 10.0 mi West 8.1 mph - N/A   Overcast
5:15 AM 64.4 °F - 59.0 °F 83% 29.94 in 10.0 mi West 9.2 mph - N/A   Overcast
5:35 AM 64.4 °F - 59.0 °F 83% 29.95 in 10.0 mi West 10.4 mph - N/A   Mostly Cloudy
5:55 AM 64.4 °F - 59.0 °F 83% 29.95 in 10.0 mi WNW 6.9 mph - N/A   Mostly Cloudy
6:15 AM 64.4 °F - 59.0 °F 83% 29.96 in 10.0 mi West 5.8 mph - N/A   Partly Cloudy
6:35 AM 64.4 °F - 59.0 °F 83% 29.96 in 10.0 mi West 5.8 mph - N/A   Scattered Clouds
6:53 AM 64.4 °F - 59.0 °F 83% 29.97 in 10.0 mi West 3.5 mph - N/A   Mostly Cloudy
6:55 AM 64.4 °F - 59.0 °F 83% 29.97 in 10.0 mi West 3.5 mph - N/A   Mostly Cloudy
7:47 AM 64.4 °F - 59.0 °F 83% 29.98 in 10.0 mi Calm Calm - N/A   Mostly Cloudy
8:47 AM 66.2 °F - 59.0 °F 78% 29.98 in 10.0 mi ESE 3.5 mph - N/A   Mostly Cloudy
10:47 AM 71.6 °F - 62.6 °F 73% 29.98 in 10.0 mi North 9.2 mph - N/A   Scattered Clouds
11:47 AM 73.4 °F - 62.6 °F 69% 29.97 in 10.0 mi NNW 12.7 mph - N/A   Partly Cloudy
12:47 PM 77.0 °F - 64.4 °F 65% 29.97 in 10.0 mi NNW 12.7 mph - N/A   Partly Cloudy
1:47 PM 78.8 °F - 64.4 °F 61% 29.96 in 10.0 mi WNW 12.7 mph 19.6 mph N/A   Partly Cloudy
2:51 PM 82.4 °F 83.9 °F 64.4 °F 54% 29.95 in 10.0 mi WNW 12.7 mph - N/A   Clear
3:49 PM 82.4 °F 83.9 °F 64.4 °F 54% 29.94 in 10.0 mi West 12.7 mph - N/A   Clear
4:47 PM 80.6 °F 82.3 °F 64.4 °F 58% 29.94 in 10.0 mi West 12.7 mph 16.1 mph N/A   Clear
5:50 PM 78.8 °F - 64.4 °F 61% 29.93 in 10.0 mi West 11.5 mph - N/A   Clear
6:47 PM 77.0 °F - 64.4 °F 65% 29.93 in 10.0 mi WSW 9.2 mph - N/A   Clear
7:47 PM 73.4 °F - 62.6 °F 69% 29.94 in 10.0 mi WSW 8.1 mph - N/A   Partly Cloudy
8:47 PM 71.6 °F - 62.6 °F 73% 29.95 in 10.0 mi NW 9.2 mph - N/A   Partly Cloudy
9:15 PM 71.6 °F - 62.6 °F 73% 29.95 in 10.0 mi NW 8.1 mph - N/A   Clear
9:35 PM 71.6 °F - 62.6 °F 73% 29.96 in 10.0 mi WNW 8.1 mph - N/A   Clear
9:55 PM 69.8 °F - 62.6 °F 78% 29.97 in 10.0 mi WNW 6.9 mph - N/A   Clear
10:15 PM 68.0 °F - 62.6 °F 83% 29.98 in 10.0 mi WNW 5.8 mph - N/A   Clear
10:55 PM 68.0 °F - 62.6 °F 83% 29.98 in 10.0 mi NW 5.8 mph - N/A   Clear
11:15 PM 68.0 °F - 62.6 °F 83% 29.98 in 10.0 mi NW 6.9 mph - N/A   Clear
11:35 PM 68.0 °F - 62.6 °F 83% 29.98 in 10.0 mi NW 9.2 mph - N/A   Clear
11:55 PM 66.2 °F - 62.6 °F 88% 29.98 in 10.0 mi NW 5.8 mph - N/A   Clear